EJU17TF LEZL-LSGG

Flight info

Callsign EJU17TF
Flight time N/A
Altitude 34000
Route HIJ M30 PARKA N858 TLD/N0433F380 N858 SIE T430 LPA T429 TOPTU DCT TOU DCT GAI/N0421F340 DCT MEN/N0399F300 DCT NINUN DCT LATAM DCT ETREK DCT LUXAN G53 LTP Z16 BELUS
Aircraft A320/M-SDE2E3FGHIJ1RWXYZ/LB1

Departure

Time 2026-04-27 13:39
Airport Seville Airport (LEZL)

Arrival

Time N/A
Airport Geneva International Airport (LSGG)
Time Latitude Longitude Altitude Speed Heading
2026-04-27 12:39 37.42340 -5.89790 94 ft 0 kts 315°
2026-04-27 13:30 37.42332 -5.89778 93 ft 4 kts 308°
2026-04-27 13:30 37.42319 -5.89750 93 ft 4 kts 277°
2026-04-27 13:30 37.42323 -5.89719 93 ft 4 kts 238°
2026-04-27 13:31 37.42336 -5.89697 93 ft 0 kts 225°
2026-04-27 13:31 37.42337 -5.89697 93 ft 0 kts 225°
2026-04-27 13:32 37.42328 -5.89707 92 ft 5 kts 225°
2026-04-27 13:33 37.42281 -5.89749 96 ft 12 kts 211°
2026-04-27 13:33 37.42209 -5.89827 95 ft 13 kts 224°
2026-04-27 13:33 37.42147 -5.89905 94 ft 12 kts 224°
2026-04-27 13:33 37.42073 -5.89920 97 ft 13 kts 161°
2026-04-27 13:34 37.42001 -5.89892 96 ft 7 kts 192°
2026-04-27 13:34 37.41980 -5.89966 96 ft 13 kts 268°
2026-04-27 13:34 37.41980 -5.90107 95 ft 16 kts 270°
2026-04-27 13:34 37.41980 -5.90244 95 ft 15 kts 269°
2026-04-27 13:35 37.41979 -5.90381 94 ft 18 kts 270°
2026-04-27 13:35 37.41979 -5.90553 93 ft 20 kts 270°
2026-04-27 13:35 37.41978 -5.90723 92 ft 19 kts 270°
2026-04-27 13:35 37.41977 -5.90886 91 ft 18 kts 270°
2026-04-27 13:36 37.41977 -5.91042 91 ft 17 kts 269°
2026-04-27 13:36 37.41976 -5.91190 89 ft 16 kts 270°
2026-04-27 13:36 37.41958 -5.91281 90 ft 4 kts 237°
2026-04-27 13:36 37.41957 -5.91283 88 ft 0 kts 237°
2026-04-27 13:37 37.41956 -5.91285 88 ft 2 kts 237°
2026-04-27 13:37 37.41921 -5.91313 91 ft 9 kts 192°
2026-04-27 13:38 37.41854 -5.91266 91 ft 13 kts 130°
2026-04-27 13:38 37.41804 -5.91180 89 ft 8 kts 144°
2026-04-27 13:38 37.41789 -5.91149 90 ft 3 kts 93°
2026-04-27 13:38 37.41788 -5.91088 93 ft 23 kts 90°
2026-04-27 13:39 37.41791 -5.90568 96 ft 92 kts 90°
2026-04-27 13:39 37.41793 -5.89531 99 ft 143 kts 90°
2026-04-27 13:39 37.41793 -5.88170 490 ft 156 kts 90°
2026-04-27 13:39 37.41768 -5.86803 1208 ft 158 kts 92°
2026-04-27 13:40 37.41732 -5.85339 1631 ft 178 kts 92°
2026-04-27 13:40 37.41691 -5.83670 1947 ft 205 kts 92°
2026-04-27 13:40 37.41696 -5.81773 2429 ft 230 kts 83°
2026-04-27 13:40 37.42131 -5.79736 3036 ft 247 kts 76°
2026-04-27 13:41 37.42607 -5.77638 3933 ft 254 kts 69°
2026-04-27 13:41 37.43651 -5.75807 4717 ft 267 kts 40°
2026-04-27 13:41 37.45292 -5.74639 5518 ft 274 kts 27°
2026-04-27 13:41 37.47025 -5.73592 6433 ft 277 kts 27°
2026-04-27 13:42 37.48771 -5.72552 7252 ft 280 kts 26°
2026-04-27 13:42 37.50550 -5.71495 8018 ft 286 kts 26°
2026-04-27 13:42 37.52378 -5.70407 8699 ft 297 kts 26°
2026-04-27 13:42 37.54271 -5.69272 9401 ft 305 kts 25°
2026-04-27 13:43 37.56198 -5.68108 10166 ft 310 kts 25°
2026-04-27 13:43 37.58192 -5.66906 10576 ft 329 kts 25°
2026-04-27 13:43 37.60314 -5.65625 11007 ft 344 kts 26°
2026-04-27 13:43 37.62492 -5.64306 11698 ft 350 kts 26°
2026-04-27 13:44 37.64700 -5.62964 12443 ft 354 kts 26°
2026-04-27 13:44 37.66931 -5.61604 13177 ft 359 kts 26°
2026-04-27 13:44 37.69161 -5.60243 13870 ft 363 kts 26°
2026-04-27 13:44 37.71443 -5.58852 14511 ft 366 kts 26°
2026-04-27 13:45 37.73748 -5.57447 15149 ft 370 kts 26°
2026-04-27 13:45 37.76073 -5.56031 15808 ft 372 kts 26°
2026-04-27 13:45 37.78415 -5.54608 16436 ft 376 kts 26°
2026-04-27 13:45 37.80783 -5.53165 17103 ft 378 kts 26°
2026-04-27 13:46 37.83159 -5.51719 17729 ft 382 kts 26°
2026-04-27 13:46 37.85558 -5.50255 18374 ft 384 kts 26°
2026-04-27 13:46 37.87972 -5.48778 18923 ft 387 kts 26°
2026-04-27 13:46 37.90402 -5.47286 19458 ft 389 kts 26°
2026-04-27 13:47 37.92844 -5.45786 20009 ft 392 kts 26°
2026-04-27 13:47 37.95309 -5.44276 20516 ft 395 kts 26°
2026-04-27 13:47 37.97791 -5.42760 21055 ft 398 kts 26°
2026-04-27 13:47 38.00295 -5.41228 21534 ft 401 kts 26°
2026-04-27 13:48 38.02812 -5.39681 22054 ft 404 kts 26°
2026-04-27 13:48 38.05351 -5.38121 22523 ft 407 kts 26°
2026-04-27 13:48 38.07908 -5.36552 23047 ft 409 kts 26°
2026-04-27 13:48 38.10479 -5.34975 23555 ft 412 kts 26°
2026-04-27 13:49 38.13066 -5.33383 23960 ft 414 kts 26°
2026-04-27 13:49 38.15665 -5.31781 24346 ft 416 kts 26°
2026-04-27 13:49 38.18277 -5.30167 24741 ft 419 kts 26°
2026-04-27 13:49 38.20904 -5.28540 25128 ft 421 kts 26°
2026-04-27 13:50 38.23549 -5.26902 25511 ft 424 kts 26°
2026-04-27 13:50 38.26210 -5.25254 25888 ft 426 kts 26°
2026-04-27 13:50 38.28882 -5.23601 26263 ft 429 kts 26°
2026-04-27 13:50 38.31572 -5.21938 26627 ft 431 kts 26°
2026-04-27 13:51 38.34278 -5.20264 26982 ft 434 kts 26°
2026-04-27 13:51 38.37001 -5.18575 27343 ft 436 kts 26°
2026-04-27 13:51 38.39736 -5.16878 27695 ft 439 kts 26°
2026-04-27 13:51 38.42492 -5.15168 28044 ft 441 kts 26°
2026-04-27 13:52 38.45257 -5.13448 28389 ft 444 kts 26°
2026-04-27 13:52 38.48081 -5.11837 28710 ft 446 kts 19°
2026-04-27 13:52 38.51074 -5.10797 29036 ft 448 kts
2026-04-27 13:52 38.54176 -5.10408 29364 ft 449 kts 359°